| time (UTC) | temp F | wind direction | speed MPH | gust MPH | rain 1hr in | rain 24hr in | rain mn in | humidity % | barometer mb |
| 20260903013028 | 85 | 209 | 6.0 | 0.0 | 0.00 | 0.00 | 0.00 | 27 | 999.4 |
| 20260903011538 | 86 | 193 | 6.0 | 0.0 | 0.00 | 0.00 | 0.00 | 27 | 999.3 |
| 20260903010032 | 87 | 190 | 5.0 | 0.0 | 0.00 | 0.00 | 0.00 | 28 | 999.7 |
| 20260903004540 | 88 | 193 | 4.0 | 0.0 | 0.00 | 0.00 | 0.00 | 28 | 999.5 |
| 20260903003104 | 89 | 217 | 6.0 | 0.0 | 0.00 | 0.00 | 0.00 | 27 | 999.4 |
| 20260903001600 | 90 | 220 | 6.0 | 0.0 | 0.00 | 0.00 | 0.00 | 26 | 999.1 |
| 20260903000004 | 92 | 188 | 6.0 | 0.0 | 0.00 | 0.00 | 0.00 | 25 | 998.9 |
| 20260902234535 | 93 | 217 | 8.0 | 0.0 | 0.00 | 0.00 | 0.00 | 20 | 998.7 |
| 20260902233038 | 94 | 205 | 7.0 | 0.0 | 0.00 | 0.00 | 0.00 | 19 | 998.6 |
| 20260902231549 | 94 | 205 | 7.0 | 0.0 | 0.00 | 0.00 | 0.00 | 20 | 998.6 |
| 20260902230058 | 95 | 207 | 8.0 | 0.0 | 0.00 | 0.00 | 0.00 | 19 | 998.8 |
| 20260902224505 | 95 | 209 | 8.0 | 0.0 | 0.00 | 0.00 | 0.00 | 20 | 998.7 |
| 20260902223008 | 95 | 182 | 8.0 | 0.0 | 0.00 | 0.00 | 0.00 | 21 | 998.9 |
| 20260902221518 | 95 | 212 | 9.0 | 0.0 | 0.00 | 0.00 | 0.00 | 21 | 999.0 |
| 20260902220007 | 95 | 192 | 9.0 | 0.0 | 0.00 | 0.00 | 0.00 | 21 | 998.7 |
| 20260902214519 | 95 | 192 | 7.0 | 0.0 | 0.00 | 0.00 | 0.00 | 22 | 998.7 |
| 20260902213021 | 95 | 189 | 9.0 | 0.0 | 0.00 | 0.00 | 0.00 | 21 | 998.9 |
| 20260902211543 | 94 | 214 | 7.0 | 0.0 | 0.00 | 0.00 | 0.00 | 24 | 998.9 |
| 20260902210027 | 95 | 189 | 6.0 | 0.0 | 0.00 | 0.00 | 0.00 | 23 | 999.3 |
| 20260902204527 | 95 | 214 | 5.0 | 0.0 | 0.00 | 0.00 | 0.00 | 24 | 999.3 |
| 20260902203041 | 94 | 189 | 7.0 | 0.0 | 0.00 | 0.00 | 0.00 | 27 | 999.6 |
| 20260902201554 | 94 | 233 | 5.0 | 0.0 | 0.00 | 0.00 | 0.00 | 28 | 999.9 |
| 20260902200138 | 93 | 220 | 7.0 | 0.0 | 0.00 | 0.00 | 0.00 | 28 | 999.9 |
| 20260902194534 | 93 | 210 | 6.0 | 0.0 | 0.00 | 0.00 | 0.00 | 29 | 1000.0 |
| 20260902193032 | 92 | 128 | 5.0 | 0.0 | 0.00 | 0.00 | 0.00 | 33 | 1000.1 |
| 20260902191557 | 91 | 250 | 4.0 | 0.0 | 0.00 | 0.00 | 0.00 | 35 | 1000.4 |
| 20260902190031 | 90 | 206 | 6.0 | 0.0 | 0.00 | 0.00 | 0.00 | 36 | 1000.4 |
| 20260902184549 | 89 | 240 | 5.0 | 0.0 | 0.00 | 0.00 | 0.00 | 37 | 1000.7 |
| 20260902181547 | 88 | 196 | 6.0 | 0.0 | 0.00 | 0.00 | 0.00 | 36 | 1001.4 |
| 20260902180010 | 88 | 196 | 5.0 | 0.0 | 0.00 | 0.00 | 0.00 | 37 | 1001.3 |
| 20260902174530 | 88 | 100 | 3.0 | 0.0 | 0.00 | 0.00 | 0.00 | 38 | 1001.5 |
| 20260902173038 | 86 | 260 | 4.0 | 0.0 | 0.00 | 0.00 | 0.00 | 45 | 1001.6 |
| 20260902171505 | 85 | 185 | 3.0 | 0.0 | 0.00 | 0.00 | 0.00 | 42 | 1001.7 |
| 20260902170018 | 84 | 238 | 3.0 | 0.0 | 0.00 | 0.00 | 0.00 | 44 | 1002.0 |
| 20260902164515 | 83 | 212 | 3.0 | 0.0 | 0.00 | 0.00 | 0.00 | 47 | 1002.1 |
| 20260902163022 | 82 | 237 | 3.0 | 0.0 | 0.00 | 0.00 | 0.00 | 47 | 1002.1 |
| 20260902161557 | 81 | 212 | 3.0 | 0.0 | 0.00 | 0.00 | 0.00 | 49 | 1002.5 |
| 20260902160006 | 79 | 284 | 3.0 | 0.0 | 0.00 | 0.00 | 0.00 | 51 | 1003.1 |
| 20260902154509 | 78 | 222 | 4.0 | 0.0 | 0.00 | 0.00 | 0.00 | 53 | 1003.1 |
| 20260902153028 | 77 | 246 | 4.0 | 0.0 | 0.00 | 0.00 | 0.00 | 55 | 1003.5 |
| 20260902151603 | 76 | 277 | 5.0 | 0.0 | 0.00 | 0.00 | 0.00 | 58 | 1003.7 |
| 20260902150022 | 75 | 277 | 4.0 | 0.0 | 0.00 | 0.00 | 0.00 | 62 | 1003.7 |
| 20260902144541 | 73 | 214 | 4.0 | 0.0 | 0.00 | 0.00 | 0.00 | 63 | 1004.0 |
| 20260902143052 | 72 | 282 | 3.0 | 0.0 | 0.00 | 0.00 | 0.00 | 66 | 1004.1 |
| 20260902141550 | 70 | 219 | 4.0 | 0.0 | 0.00 | 0.00 | 0.00 | 67 | 1004.5 |
| 20260902140013 | 68 | 264 | 4.0 | 0.0 | 0.00 | 0.00 | 0.00 | 70 | 1004.5 |
| 20260902134539 | 67 | 272 | 4.0 | 0.0 | 0.00 | 0.00 | 0.00 | 72 | 1004.8 |
| 20260902133046 | 66 | 236 | 5.0 | 0.0 | 0.00 | 0.00 | 0.00 | 74 | 1005.0 |
| 20260902131551 | 65 | 226 | 4.0 | 0.0 | 0.00 | 0.00 | 0.00 | 78 | 1005.2 |
| 20260902130015 | 63 | 244 | 2.0 | 0.0 | 0.00 | 0.00 | 0.00 | 80 | 1003.1 |
| 20260902124538 | 63 | 224 | 2.0 | 0.0 | 0.00 | 0.00 | 0.00 | 80 | 1003.1 |
| 20260902123035 | 63 | 229 | 1.0 | 0.0 | 0.00 | 0.00 | 0.00 | 80 | 1002.9 |
| 20260902121548 | 63 | 205 | 1.0 | 0.0 | 0.00 | 0.00 | 0.00 | 80 | 1002.6 |
| 20260902120059 | 63 | 198 | 3.0 | 0.0 | 0.00 | 0.00 | 0.00 | 79 | 1002.3 |
| 20260902114511 | 63 | 198 | 3.0 | 0.0 | 0.00 | 0.00 | 0.00 | 81 | 1002.2 |
| 20260902113005 | 63 | 200 | 0.0 | 0.0 | 0.00 | 0.00 | 0.00 | 79 | 1002.2 |
| 20260902111513 | 64 | 200 | 1.0 | 0.0 | 0.00 | 0.00 | 0.00 | 79 | 1002.2 |
| 20260902110031 | 64 | 205 | 3.0 | 0.0 | 0.00 | 0.00 | 0.00 | 80 | 1002.0 |
| 20260902104526 | 64 | 178 | 1.0 | 0.0 | 0.00 | 0.00 | 0.00 | 79 | 1002.0 |
| 20260902103017 | 64 | 193 | 1.0 | 0.0 | 0.00 | 0.00 | 0.00 | 79 | 1002.0 |
| 20260902101521 | 65 | 166 | 1.0 | 0.0 | 0.00 | 0.00 | 0.00 | 77 | 1002.2 |
| 20260902100106 | 65 | 209 | 1.0 | 0.0 | 0.00 | 0.00 | 0.00 | 77 | 1002.2 |
| 20260902094539 | 65 | 192 | 2.0 | 0.0 | 0.00 | 0.00 | 0.00 | 77 | 1002.2 |
| 20260902093008 | 65 | 195 | 3.0 | 0.0 | 0.00 | 0.00 | 0.00 | 77 | 1002.2 |
| 20260902091517 | 65 | 164 | 3.0 | 0.0 | 0.00 | 0.00 | 0.00 | 77 | 1002.3 |
| 20260902090026 | 65 | 193 | 2.0 | 0.0 | 0.00 | 0.00 | 0.00 | 76 | 1002.5 |
| 20260902084529 | 66 | 195 | 2.0 | 0.0 | 0.00 | 0.00 | 0.00 | 75 | 1002.2 |
| 20260902083034 | 66 | 172 | 4.0 | 0.0 | 0.00 | 0.00 | 0.00 | 74 | 1002.3 |
| 20260902081611 | 66 | 193 | 4.0 | 0.0 | 0.00 | 0.00 | 0.00 | 75 | 1002.4 |
| 20260902080107 | 67 | 150 | 3.0 | 0.0 | 0.00 | 0.00 | 0.00 | 71 | 1002.2 |
| 20260902074600 | 69 | 198 | 4.0 | 0.0 | 0.00 | 0.00 | 0.00 | 66 | 1002.1 |
| 20260902074502 | 69 | 192 | 4.0 | 0.0 | 0.00 | 0.00 | 0.00 | 66 | 1002.1 |
| 20260902073050 | 69 | 236 | 5.0 | 0.0 | 0.00 | 0.00 | 0.00 | 65 | 1001.7 |
| 20260902071540 | 70 | 226 | 6.0 | 0.0 | 0.00 | 0.00 | 0.00 | 64 | 1001.7 |
| 20260902070045 | 69 | 220 | 5.0 | 0.0 | 0.00 | 0.00 | 0.00 | 65 | 1001.7 |
| 20260902064542 | 69 | 240 | 4.0 | 0.0 | 0.00 | 0.00 | 0.00 | 64 | 1001.7 |
| 20260902063111 | 70 | 243 | 4.0 | 0.0 | 0.00 | 0.00 | 0.00 | 64 | 1001.8 |
| 20260902061552 | 71 | 289 | 3.0 | 0.0 | 0.00 | 0.00 | 0.00 | 62 | 1001.6 |
| 20260902060011 | 72 | 236 | 4.0 | 0.0 | 0.00 | 0.00 | 0.00 | 58 | 1002.0 |
| 20260902054528 | 72 | 219 | 6.0 | 0.0 | 0.00 | 0.00 | 0.00 | 57 | 1002.2 |
| 20260902053032 | 72 | 222 | 5.0 | 0.0 | 0.00 | 0.00 | 0.00 | 59 | 1002.5 |
| 20260902051545 | 71 | 212 | 6.0 | 0.0 | 0.00 | 0.00 | 0.00 | 61 | 1002.5 |
| 20260902050013 | 71 | 247 | 6.0 | 0.0 | 0.00 | 0.00 | 0.00 | 61 | 1003.0 |
| 20260902044536 | 71 | 217 | 7.0 | 0.0 | 0.00 | 0.00 | 0.00 | 62 | 1003.2 |
| 20260902043053 | 70 | 199 | 5.0 | 0.0 | 0.00 | 0.00 | 0.00 | 65 | 1003.3 |
| 20260902041520 | 68 | 203 | 5.0 | 0.0 | 0.00 | 0.00 | 0.00 | 72 | 1003.7 |
| 20260902040030 | 67 | 217 | 4.0 | 0.0 | 0.00 | 0.00 | 0.00 | 80 | 1004.2 |
| 20260902034536 | 66 | 200 | 5.0 | 0.0 | 0.00 | 0.00 | 0.00 | 84 | 1004.2 |
| 20260902033042 | 67 | 185 | 3.0 | 0.0 | 0.00 | 0.00 | 0.00 | 86 | 1004.2 |
| 20260902031551 | 67 | 175 | 1.0 | 0.0 | 0.00 | 0.00 | 0.00 | 86 | 1004.0 |
| 20260902030055 | 67 | 322 | 1.0 | 0.0 | 0.00 | 0.00 | 0.00 | 85 | 1004.9 |
| 20260902024517 | 67 | 323 | 0.0 | 0.0 | 0.00 | 0.00 | 0.00 | 83 | 1004.7 |
| 20260902023022 | 67 | 322 | 1.0 | 0.0 | 0.00 | 0.00 | 0.00 | 81 | 1004.6 |
| 20260902021545 | 68 | 219 | 4.0 | 0.0 | 0.00 | 0.00 | 0.00 | 78 | 1004.6 |
| 20260902020011 | 69 | 205 | 11.0 | 0.0 | 0.00 | 0.00 | 0.00 | 75 | 1005.1 |
| 20260902014542 | 71 | 206 | 9.0 | 0.0 | 0.00 | 0.00 | 0.00 | 74 | 1004.7 |